DW1024 Weather Reports


Display with metric or nautical units.
time (UTC)temp
F
wind
direction
speed
MPH
gust
MPH
rain 1hr
in
rain 24hr
in
rain mn
in
humidity
%
barometer
mb
20260904133055 90 225 5.0 11.0 0.00 0.00 0.00 32 1017.6
20260904124752 89 172 5.0 13.0 0.00 0.00 0.00 35 1017.9
20260904123248 89 232 5.0 12.0 0.00 0.00 0.00 37 1018.1
20260904121750 88 176 4.0 9.0 0.00 0.00 0.00 37 1018.4
20260904120248 88 252 4.0 12.0 0.00 0.00 0.00 38 1018.6
20260904114750 88 131 3.0 11.0 0.00 0.00 0.00 37 1018.9
20260904110247 86 229 3.0 13.0 0.00 0.00 0.00 41 1019.7
20260904103246 84 194 4.0 12.0 0.00 0.00 0.00 42 1020.2
20260904101744 84 278 4.0 14.0 0.00 0.00 0.00 43 1020.6
20260904094751 82 294 4.0 10.0 0.00 0.00 0.00 45 1021.1
20260904093240 82 213 3.0 9.0 0.00 0.00 0.00 45 1021.2
20260904084741 79 221 3.0 9.0 0.00 0.00 0.00 49 1021.7
20260904083239 79 256 3.0 9.0 0.00 0.00 0.00 50 1021.8
20260904080239 78 244 1.0 6.0 0.00 0.00 0.00 53 1021.8
20260904073236 74 262 2.0 7.0 0.00 0.00 0.00 57 1022.3
20260904071736 73 265 2.0 6.0 0.00 0.00 0.00 60 1022.2
20260904070236 71 225 2.0 7.0 0.00 0.00 0.00 62 1022.2
20260904064733 68 262 1.0 4.0 0.00 0.00 0.00 67 1022.3
20260904063235 67 226 2.0 7.0 0.00 0.00 0.00 68 1022.3
20260904061733 67 265 2.0 5.0 0.00 0.00 0.00 69 1022.2
20260904060231 66 295 1.0 6.0 0.00 0.00 0.00 69 1022.4
20260904054731 65 281 1.0 2.0 0.00 0.00 0.00 72 1022.5
20260904053231 65 269 0.0 1.0 0.00 0.00 0.00 72 1022.4
20260904051733 64 269 0.0 1.0 0.00 0.00 0.00 73 1022.4
20260904050226 64 269 0.0 0.0 0.00 0.00 0.00 74 1022.4
20260904043226 64 269 0.0 1.0 0.00 0.00 0.00 72 1022.4
20260904041723 65 269 0.0 1.0 0.00 0.00 0.00 71 1022.5
20260904040222 65 269 0.0 1.0 0.00 0.00 0.00 71 1022.5
20260904034722 64 269 0.0 0.0 0.00 0.00 0.00 71 1022.7
20260904031728 66 269 0.0 1.0 0.00 0.00 0.00 67 1022.6
20260904030228 67 269 1.0 5.0 0.00 0.00 0.00 66 1022.7
20260904024724 67 218 1.0 4.0 0.00 0.00 0.00 65 1022.7
20260904023216 67 236 1.0 3.0 0.00 0.00 0.00 66 1022.8
20260904021721 67 185 1.0 4.0 0.00 0.00 0.00 66 1022.9
20260904020220 67 214 0.0 3.0 0.00 0.00 0.00 67 1022.8
20260904014717 67 248 1.0 3.0 0.00 0.00 0.00 66 1023.0
20260904013211 68 238 1.0 3.0 0.00 0.00 0.00 66 1023.1
20260904011720 68 219 1.0 4.0 0.00 0.00 0.00 67 1023.2
20260904010212 68 198 1.0 4.0 0.00 0.00 0.00 67 1023.1
20260904004708 68 246 1.0 4.0 0.00 0.00 0.00 67 1023.1
20260904003208 68 288 1.0 4.0 0.00 0.00 0.00 67 1023.2
20260903234710 67 237 1.0 4.0 0.00 0.00 0.00 67 1023.5
20260903233207 67 213 1.0 4.0 0.00 0.00 0.00 67 1023.6
20260903231709 67 211 1.0 3.0 0.00 0.00 0.00 67 1023.6
20260903230208 67 236 1.0 4.0 0.00 0.00 0.00 68 1023.7
20260903224708 67 243 1.0 3.0 0.00 0.00 0.00 66 1023.9
20260903223209 68 217 1.0 3.0 0.00 0.00 0.00 66 1023.9
20260903221706 67 232 1.0 4.0 0.00 0.00 0.00 67 1023.9
20260903220206 67 248 1.0 3.0 0.00 0.00 0.00 67 1024.0
20260903214706 66 230 0.0 2.0 0.00 0.00 0.00 68 1023.9
20260903213205 66 230 0.0 1.0 0.00 0.00 0.00 68 1023.6
20260903211706 67 230 0.0 3.0 0.00 0.00 0.00 67 1023.5
20260903210203 67 217 1.0 4.0 0.00 0.00 0.00 66 1023.4
20260903201704 67 264 0.0 1.0 0.00 0.00 0.00 66 1023.7
20260903200202 67 264 0.0 1.0 0.00 0.00 0.00 67 1023.7
20260903194703 68 264 0.0 2.0 0.00 0.00 0.00 64 1023.4
20260903191707 70 296 1.0 4.0 0.00 0.00 0.00 60 1023.0
20260903190204 70 257 1.0 4.0 0.00 0.00 0.00 60 1022.9
20260903184702 70 171 1.0 4.0 0.00 0.00 0.00 60 1022.8
20260903183204 71 235 1.0 4.0 0.00 0.00 0.00 59 1022.8
20260903181703 71 257 1.0 4.0 0.00 0.00 0.00 58 1022.6
20260903180203 72 269 1.0 6.0 0.00 0.00 0.00 57 1022.7
20260903173204 74 256 2.0 6.0 0.00 0.00 0.00 55 1022.5
20260903171704 74 194 2.0 7.0 0.00 0.00 0.00 54 1022.5
20260903170201 75 265 1.0 8.0 0.00 0.00 0.00 54 1022.6
20260903164704 75 285 2.0 8.0 0.00 0.00 0.00 53 1022.5
20260903163201 76 289 3.0 9.0 0.00 0.00 0.00 53 1022.3
20260903161703 76 246 2.0 7.0 0.00 0.00 0.00 53 1022.4
20260903160203 77 232 3.0 8.0 0.00 0.00 0.00 52 1022.5
20260903154701 77 277 3.0 8.0 0.00 0.00 0.00 51 1022.4
20260903153209 77 273 3.0 8.0 0.00 0.00 0.00 51 1022.6
20260903151705 78 246 3.0 11.0 0.00 0.00 0.00 50 1022.6
20260903150204 79 263 3.0 10.0 0.00 0.00 0.00 48 1022.5
20260903144705 79 167 4.0 12.0 0.00 0.00 0.00 49 1022.5
20260903143202 78 246 3.0 10.0 0.00 0.00 0.00 49 1022.7
20260903141704 79 248 4.0 14.0 0.00 0.00 0.00 48 1022.8
20260903140205 79 273 3.0 9.0 0.00 0.00 0.00 48 1022.8
20260903134702 78 243 4.0 11.0 0.00 0.00 0.00 48 1022.8
20260903133747 79 286 3.0 11.0 0.00 0.00 0.00 49 1022.8